weather.gov     
National Weather Service

Terminal Aerodrome Forecast
NWS Homepage
This page is being discontinued on March 12, 2014.
The same data is available at this site. Please update your bookmarks.
Thank you, and we apologize for the inconvenience.
Please send an email to SR-SRH.Webmaster@noaa.gov with any concerns.


Current Version
Previous Version:    01  02  03  04  05  06  07  08  09  10  11  12  13  14  15  16  17  18  19  20  21  22  23  24  25  
[Printable]
946
FTUS43 KGRB 301100
TAFATW
TAF
KATW 301129Z 3012/3112 VRB03KT P6SM SCT035 BKN150
     FM301500 25006KT P6SM SCT035 OVC100
     FM302000 27007KT P6SM SCT035 OVC060
     FM302300 29009KT P6SM -RA BKN035 OVC050
     FM310300 32014G24KT P6SM SCT035 BKN070
     FM310800 34017G27KT P6SM BKN035 OVC050
      TEMPO 3108/3112 2SM SHRASN BKN025=


U.S. Dept. of Commerce
NOAA National Weather Service
1325 East West Highway
Silver Spring, MD 20910
E-mail: w-nws.webmaster@noaa.gov
Page last modified: May 16, 2007
NATIONAL WEATHER SERVICE: for Safety, for Work, for Fun - FOR LIFE